This is the latest recevied weather packets stored in our database for station/object W4TTU-1. If no packets are shown the sender has not sent any weather packets the latest 10 day(s).
| Time | Temp. | Humidity | Pressure | Rain* | Wind** | Luminosity | Snow |
|---|---|---|---|---|---|---|---|
| 1777932158 | 27.22° C | 25% | 842.4 hPa | 0 mm | - | - | - |
| 1777931258 | 27.22° C | 25% | 842.6 hPa | 0 mm | - | - | - |
| 1777929457 | 28.33° C | 25% | 842.6 hPa | 0 mm | - | - | - |
| 1777927653 | 27.78° C | 26% | 842.7 hPa | 0 mm | - | - | - |
| 1777926752 | 27.22° C | 26% | 842.8 hPa | 0 mm | - | - | - |
| 1777925852 | 27.22° C | 27% | 842.9 hPa | 0 mm | - | - | - |
| 1777924951 | 26.67° C | 27% | 842.8 hPa | 0 mm | - | - | - |
| 1777924052 | 26.11° C | 27% | 842.9 hPa | 0 mm | - | - | - |
| 1777922250 | 25° C | 28% | 843 hPa | 0 mm | - | - | - |
| 1777921349 | 23.89° C | 29% | 843 hPa | 0 mm | - | - | - |
| 1777920449 | 23.33° C | 29% | 843 hPa | 0 mm | - | - | - |
| 1777919548 | 22.22° C | 30% | 843.2 hPa | 0 mm | - | - | - |
| 1777918647 | 21.11° C | 31% | 843.5 hPa | 0 mm | - | - | - |
| 1777917747 | 20° C | 31% | 843.8 hPa | 0 mm | - | - | - |
| 1777916847 | 18.89° C | 31% | 843.9 hPa | 0 mm | - | - | - |
| 1777915946 | 17.78° C | 32% | 844 hPa | 0 mm | - | - | - |
| 1777915045 | 16.67° C | 32% | 844.1 hPa | 0 mm | - | - | - |
| 1777914145 | 16.11° C | 34% | 844.4 hPa | 0 mm | - | - | - |
| 1777913244 | 15° C | 34% | 844.4 hPa | 0 mm | - | - | - |
| 1777912344 | 13.89° C | 35% | 844.5 hPa | 0 mm | - | - | - |
| 1777911443 | 12.78° C | 34% | 844.6 hPa | 0 mm | - | - | - |
| 1777909642 | 10.56° C | 34% | 844.8 hPa | 0 mm | - | - | - |
| 1777908742 | 10° C | 33% | 845 hPa | 0 mm | - | - | - |
| 1777907841 | 9.44° C | 33% | 844.9 hPa | 0 mm | - | - | - |
| 1777906941 | 8.89° C | 34% | 845.1 hPa | 0 mm | - | - | - |
* Rain since midnight (hover to see other rain measurements)
** Current wind speed in m/s (hover to see current wind gust speed)